{"data":{"norad_id":61633,"intl_designator":"2024-191N","name":"STARLINK-32396","alt_names":[],"object_type":"PAYLOAD","status":"ACTIVE","operator":null,"country":"US","launch_date":"2024-10-23","launch_site_code":"AFETR","launch_vehicle":null,"mission":null,"orbit_class":"UNKNOWN","rcs_meters":null,"size_class":null,"mass_kg":null,"dimensions":null,"purposes":["comms"],"wikipedia_slug":null,"has_3d_model":false,"image_url":null,"decayed_at":null,"tle_current":{"epoch":"2026-09-20T23:47:48.192000Z","epoch_age_seconds":149546,"freshness":"FRESH","line1":"1 61633U 24191N   26263.99153000  .00000988  00000+0  45416-4 0  9990","line2":"2 61633  43.0003 135.1472 0001152 268.8791  91.1929 15.27581021107364","mean_motion":15.27581021,"eccentricity":0.0001152,"inclination_deg":43.0003,"raan_deg":135.1472,"arg_perigee_deg":268.8791,"mean_anomaly_deg":91.1929,"bstar":4.5416e-5,"rev_number":10736,"period_min":94.266685707926,"perigee_km":482.25563051398,"apogee_km":483.83644708612,"semimajor_km":6861.1830388001,"source":"CELESTRAK","updated_at":"2026-09-22T09:00:49.397284Z"}}}